AAL65 KEWR-KRDU

Flight info

Callsign AAL65
Flight time N/A
Altitude 38000
Route ELVAE NECCK WHITE Q409 VILLS NALES Q141 HOUKY TAQLE3
Aircraft B77W/H-SDE1E2E3FGHIJ2J3J4J5M1RWXY/LB1D1

Departure

Time 2026-05-07 01:44
Airport Newark Liberty International Airport (KEWR)

Arrival

Time N/A
Airport Raleigh-Durham International Airport (KRDU)
Time Latitude Longitude Altitude Speed Heading
2026-05-07 00:57 40.69241 -74.17522 27 ft 0 kts 146°
2026-05-07 01:21 40.69243 -74.17524 27 ft 3 kts 147°
2026-05-07 01:22 40.69253 -74.17532 27 ft 4 kts 158°
2026-05-07 01:22 40.69263 -74.17537 26 ft 4 kts 175°
2026-05-07 01:22 40.69273 -74.17538 26 ft 4 kts 193°
2026-05-07 01:22 40.69284 -74.17534 26 ft 4 kts 209°
2026-05-07 01:23 40.69295 -74.17525 25 ft 4 kts 217°
2026-05-07 01:23 40.69304 -74.17515 25 ft 2 kts 218°
2026-05-07 01:23 40.69312 -74.17507 26 ft 4 kts 226°
2026-05-07 01:23 40.69320 -74.17496 25 ft 4 kts 240°
2026-05-07 01:24 40.69325 -74.17483 24 ft 4 kts 257°
2026-05-07 01:24 40.69327 -74.17468 27 ft 4 kts 271°
2026-05-07 01:24 40.69327 -74.17452 26 ft 4 kts 281°
2026-05-07 01:24 40.69324 -74.17435 24 ft 4 kts 286°
2026-05-07 01:25 40.69320 -74.17418 25 ft 4 kts 288°
2026-05-07 01:25 40.69316 -74.17404 25 ft 1 kts 287°
2026-05-07 01:25 40.69329 -74.17452 26 ft 4 kts 102°
2026-05-07 01:25 40.69329 -74.17435 26 ft 4 kts 92°
2026-05-07 01:26 40.69329 -74.17418 25 ft 4 kts 86°
2026-05-07 01:26 40.69330 -74.17401 23 ft 4 kts 85°
2026-05-07 01:26 40.69331 -74.17383 25 ft 4 kts 87°
2026-05-07 01:26 40.69330 -74.17366 26 ft 4 kts 96°
2026-05-07 01:27 40.69330 -74.17368 26 ft 2 kts 106°
2026-05-07 01:27 40.69334 -74.17383 26 ft 4 kts 106°
2026-05-07 01:27 40.69337 -74.17400 24 ft 4 kts 106°
2026-05-07 01:27 40.69339 -74.17410 24 ft 0 kts 106°
2026-05-07 01:28 40.69339 -74.17408 24 ft 0 kts 106°
2026-05-07 01:35 40.69336 -74.17396 24 ft 8 kts 107°
2026-05-07 01:35 40.69326 -74.17357 22 ft 9 kts 112°
2026-05-07 01:35 40.69312 -74.17319 30 ft 9 kts 119°
2026-05-07 01:35 40.69295 -74.17282 27 ft 9 kts 117°
2026-05-07 01:36 40.69280 -74.17245 27 ft 9 kts 119°
2026-05-07 01:36 40.69264 -74.17208 27 ft 9 kts 119°
2026-05-07 01:36 40.69248 -74.17171 27 ft 9 kts 119°
2026-05-07 01:36 40.69231 -74.17127 27 ft 15 kts 117°
2026-05-07 01:37 40.69216 -74.17043 27 ft 17 kts 87°
2026-05-07 01:37 40.69236 -74.16988 26 ft 6 kts 41°
2026-05-07 01:37 40.69260 -74.16977 26 ft 10 kts 13°
2026-05-07 01:37 40.69294 -74.16969 27 ft 10 kts 11°
2026-05-07 01:38 40.69327 -74.16961 27 ft 10 kts 12°
2026-05-07 01:38 40.69358 -74.16946 27 ft 10 kts 24°
2026-05-07 01:38 40.69389 -74.16927 27 ft 10 kts 25°
2026-05-07 01:38 40.69428 -74.16903 27 ft 18 kts 25°
2026-05-07 01:39 40.69506 -74.16855 27 ft 31 kts 25°
2026-05-07 01:39 40.69602 -74.16794 27 ft 26 kts 26°
2026-05-07 01:39 40.69684 -74.16742 27 ft 26 kts 26°
2026-05-07 01:39 40.69767 -74.16689 29 ft 26 kts 26°
2026-05-07 01:40 40.69848 -74.16637 28 ft 26 kts 26°
2026-05-07 01:40 40.69931 -74.16583 27 ft 26 kts 26°
2026-05-07 01:40 40.70006 -74.16536 30 ft 23 kts 25°
2026-05-07 01:40 40.70060 -74.16489 30 ft 8 kts 51°
2026-05-07 01:41 40.70063 -74.16479 27 ft 0 kts 71°
2026-05-07 01:41 40.70064 -74.16470 30 ft 7 kts 78°
2026-05-07 01:41 40.70065 -74.16418 26 ft 14 kts 95°
2026-05-07 01:41 40.70049 -74.16376 28 ft 6 kts 137°
2026-05-07 01:42 40.70030 -74.16369 27 ft 6 kts 174°
2026-05-07 01:42 40.70011 -74.16377 27 ft 6 kts 202°
2026-05-07 01:42 40.69991 -74.16389 25 ft 9 kts 204°
2026-05-07 01:42 40.69917 -74.16433 27 ft 43 kts 204°
2026-05-07 01:43 40.69712 -74.16565 30 ft 88 kts 206°
2026-05-07 01:43 40.69370 -74.16787 27 ft 131 kts 205°
2026-05-07 01:43 40.68893 -74.17093 30 ft 172 kts 210°
2026-05-07 01:43 40.68301 -74.17465 120 ft 202 kts 210°
2026-05-07 01:44 40.67636 -74.17870 389 ft 218 kts 210°
2026-05-07 01:44 40.66935 -74.18326 811 ft 230 kts 209°
2026-05-07 01:44 40.66209 -74.18784 1432 ft 234 kts 209°
2026-05-07 01:44 40.65511 -74.19210 1767 ft 231 kts 210°
2026-05-07 01:45 40.64781 -74.19702 1825 ft 235 kts 214°
2026-05-07 01:45 40.64122 -74.20233 1872 ft 231 kts 218°
2026-05-07 01:45 40.63488 -74.20805 1976 ft 225 kts 219°
2026-05-07 01:45 40.62825 -74.21368 1993 ft 229 kts 216°
2026-05-07 01:46 40.62132 -74.21901 2161 ft 234 kts 214°
2026-05-07 01:46 40.61480 -74.22391 2459 ft 238 kts 214°
2026-05-07 01:46 40.60814 -74.22889 2698 ft 245 kts 214°
2026-05-07 01:46 40.60082 -74.23440 3012 ft 249 kts 214°
2026-05-07 01:47 40.59373 -74.23974 3402 ft 248 kts 214°
2026-05-07 01:47 40.58623 -74.24540 3849 ft 248 kts 214°
2026-05-07 01:47 40.57905 -74.25084 4311 ft 245 kts 215°
2026-05-07 01:47 40.57164 -74.25647 4728 ft 246 kts 215°
2026-05-07 01:48 40.56423 -74.26211 5147 ft 244 kts 215°
2026-05-07 01:48 40.55724 -74.26691 5556 ft 243 kts 208°
2026-05-07 01:48 40.54898 -74.27008 5873 ft 253 kts 194°
2026-05-07 01:48 40.54008 -74.27072 6008 ft 260 kts 183°
2026-05-07 01:49 40.53097 -74.26889 5997 ft 270 kts 171°
2026-05-07 01:49 40.52206 -74.26480 6054 ft 274 kts 167°
2026-05-07 01:49 40.51636 -74.26188 6031 ft 277 kts 167°
2026-05-07 01:49 40.50430 -74.25581 6043 ft 277 kts 168°
2026-05-07 01:50 40.49835 -74.25280 6075 ft 276 kts 167°
2026-05-07 01:50 40.48931 -74.24826 6023 ft 279 kts 167°
2026-05-07 01:50 40.48030 -74.24373 6050 ft 277 kts 167°
2026-05-07 01:50 40.47128 -74.23919 6035 ft 277 kts 167°
2026-05-07 01:51 40.46231 -74.23468 6124 ft 276 kts 167°
2026-05-07 01:51 40.45341 -74.23020 6418 ft 273 kts 167°
2026-05-07 01:51 40.44449 -74.22573 6732 ft 276 kts 168°
2026-05-07 01:51 40.43545 -74.22123 7028 ft 279 kts 168°
2026-05-07 01:52 40.42629 -74.21668 7351 ft 281 kts 168°
2026-05-07 01:52 40.41713 -74.21212 7689 ft 282 kts 168°
2026-05-07 01:52 40.40795 -74.20755 8025 ft 283 kts 168°
2026-05-07 01:52 40.39873 -74.20296 8363 ft 284 kts 168°
2026-05-07 01:53 40.38946 -74.19836 8704 ft 285 kts 168°
2026-05-07 01:53 40.38014 -74.19374 9034 ft 287 kts 168°
2026-05-07 01:53 40.37075 -74.18910 9363 ft 289 kts 168°
2026-05-07 01:53 40.36148 -74.18450 9727 ft 288 kts 168°
2026-05-07 01:54 40.35207 -74.17984 10070 ft 289 kts 169°
2026-05-07 01:54 40.34258 -74.17516 10322 ft 294 kts 168°
2026-05-07 01:54 40.33286 -74.17041 10442 ft 302 kts 169°
2026-05-07 01:54 40.32271 -74.16636 10481 ft 306 kts 177°
2026-05-07 01:55 40.31213 -74.16426 10560 ft 311 kts 184°
2026-05-07 01:55 40.30142 -74.16375 10635 ft 317 kts 188°
2026-05-07 01:55 40.29031 -74.16475 10711 ft 323 kts 195°
2026-05-07 01:55 40.27910 -74.16723 10796 ft 332 kts 198°
2026-05-07 01:56 40.26765 -74.17059 10871 ft 341 kts 200°
2026-05-07 01:56 40.25616 -74.17436 11038 ft 347 kts 200°
2026-05-07 01:56 40.24440 -74.17833 11281 ft 350 kts 200°
2026-05-07 01:56 40.23258 -74.18231 11637 ft 350 kts 200°
2026-05-07 01:57 40.22079 -74.18623 12074 ft 350 kts 200°
2026-05-07 01:57 40.20903 -74.19006 12471 ft 349 kts 200°
2026-05-07 01:57 40.19718 -74.19383 12897 ft 349 kts 200°
2026-05-07 01:57 40.18536 -74.19754 13335 ft 350 kts 200°
2026-05-07 01:58 40.17346 -74.20122 13756 ft 351 kts 200°
2026-05-07 01:58 40.16171 -74.20482 14134 ft 352 kts 200°
2026-05-07 01:58 40.14977 -74.20845 14514 ft 353 kts 199°
2026-05-07 01:58 40.13779 -74.21205 14881 ft 353 kts 199°
2026-05-07 01:59 40.12590 -74.21562 15274 ft 353 kts 200°
2026-05-07 01:59 40.11392 -74.21919 15672 ft 352 kts 200°
2026-05-07 01:59 40.10200 -74.22274 16068 ft 351 kts 200°
2026-05-07 01:59 40.09008 -74.22629 16501 ft 350 kts 200°
2026-05-07 02:00 40.07824 -74.22981 16902 ft 350 kts 200°
2026-05-07 02:00 40.06639 -74.23333 17328 ft 349 kts 200°
2026-05-07 02:00 40.05456 -74.23685 17754 ft 348 kts 200°
2026-05-07 02:00 40.04278 -74.24034 18188 ft 346 kts 200°
2026-05-07 02:01 40.03119 -74.24415 18556 ft 342 kts 205°
2026-05-07 02:01 40.02018 -74.24905 18920 ft 336 kts 210°
2026-05-07 02:01 40.00952 -74.25502 19320 ft 331 kts 213°
2026-05-07 02:01 39.99922 -74.26162 19702 ft 328 kts 216°
2026-05-07 02:02 39.98928 -74.26873 20080 ft 323 kts 219°
2026-05-07 02:02 39.97984 -74.27650 20472 ft 317 kts 223°
2026-05-07 02:02 39.97092 -74.28478 20873 ft 312 kts 224°
2026-05-07 02:02 39.96221 -74.29305 21274 ft 309 kts 225°
2026-05-07 02:03 39.95361 -74.30130 21683 ft 305 kts 225°
2026-05-07 02:03 39.94512 -74.30947 22104 ft 301 kts 226°
2026-05-07 02:03 39.93676 -74.31751 22513 ft 297 kts 226°
2026-05-07 02:03 39.92851 -74.32544 22940 ft 292 kts 227°
2026-05-07 02:04 39.92039 -74.33324 23378 ft 288 kts 227°
2026-05-07 02:04 39.91240 -74.34090 23740 ft 282 kts 227°
2026-05-07 02:04 39.90445 -74.34854 23872 ft 289 kts 228°
2026-05-07 02:04 39.89623 -74.35654 23745 ft 299 kts 227°
2026-05-07 02:05 39.88777 -74.36471 23843 ft 305 kts 227°
2026-05-07 02:05 39.87914 -74.37303 23838 ft 313 kts 227°
2026-05-07 02:05 39.87028 -74.38152 23882 ft 320 kts 226°
2026-05-07 02:05 39.86119 -74.39019 23922 ft 327 kts 226°
2026-05-07 02:06 39.85204 -74.39892 23963 ft 334 kts 226°
2026-05-07 02:06 39.84257 -74.40794 24008 ft 341 kts 226°
2026-05-07 02:06 39.83292 -74.41712 24040 ft 347 kts 226°
2026-05-07 02:06 39.82329 -74.42668 24168 ft 347 kts 228°
2026-05-07 02:07 39.81411 -74.43668 24488 ft 342 kts 230°
2026-05-07 02:07 39.79719 -74.45783 25168 ft 333 kts 234°
2026-05-07 02:07 39.78906 -74.46860 25435 ft 333 kts 234°
2026-05-07 02:08 39.78096 -74.47940 25648 ft 335 kts 234°
2026-05-07 02:08 39.77278 -74.49032 25837 ft 337 kts 234°
2026-05-07 02:08 39.76461 -74.50124 26022 ft 338 kts 234°
2026-05-07 02:08 39.75650 -74.51207 26249 ft 339 kts 234°
2026-05-07 02:09 39.74826 -74.52305 26492 ft 339 kts 234°
2026-05-07 02:09 39.74003 -74.53402 26737 ft 339 kts 234°
2026-05-07 02:09 39.73177 -74.54500 26986 ft 339 kts 234°
2026-05-07 02:09 39.72351 -74.55597 27238 ft 340 kts 234°
2026-05-07 02:10 39.71525 -74.56695 27461 ft 340 kts 234°
2026-05-07 02:10 39.70697 -74.57794 27680 ft 341 kts 234°
2026-05-07 02:10 39.69866 -74.58896 27902 ft 342 kts 234°
2026-05-07 02:10 39.69033 -74.60001 28101 ft 343 kts 234°
2026-05-07 02:11 39.68197 -74.61108 28334 ft 343 kts 234°
2026-05-07 02:11 39.67360 -74.62215 28539 ft 344 kts 234°
2026-05-07 02:11 39.66522 -74.63324 28758 ft 344 kts 234°
2026-05-07 02:11 39.65679 -74.64438 28995 ft 345 kts 234°
2026-05-07 02:12 39.64850 -74.65534 29204 ft 345 kts 234°
2026-05-07 02:12 39.64007 -74.66648 29427 ft 346 kts 234°
2026-05-07 02:12 39.63163 -74.67761 29633 ft 346 kts 234°
2026-05-07 02:12 39.62317 -74.68879 29822 ft 347 kts 234°
2026-05-07 02:13 39.61470 -74.69997 30002 ft 348 kts 234°
2026-05-07 02:13 39.60618 -74.71121 30125 ft 350 kts 234°
2026-05-07 02:13 39.59767 -74.72244 30293 ft 349 kts 234°
2026-05-07 02:13 39.58915 -74.73366 30514 ft 349 kts 234°
2026-05-07 02:14 39.58062 -74.74488 30694 ft 349 kts 234°
2026-05-07 02:14 39.57208 -74.75612 30854 ft 350 kts 234°
2026-05-07 02:14 39.56354 -74.76737 30963 ft 351 kts 234°
2026-05-07 02:14 39.55494 -74.77870 31078 ft 353 kts 234°
2026-05-07 02:15 39.54628 -74.79009 31215 ft 354 kts 234°
2026-05-07 02:15 39.53777 -74.80128 31425 ft 352 kts 234°
2026-05-07 02:15 39.52921 -74.81250 31682 ft 349 kts 235°
2026-05-07 02:15 39.52066 -74.82371 31870 ft 350 kts 235°
2026-05-07 02:16 39.50341 -74.84640 31886 ft 354 kts 234°
2026-05-07 02:16 39.48592 -74.86942 31898 ft 362 kts 234°
2026-05-07 02:17 39.46804 -74.89293 31897 ft 370 kts 234°
2026-05-07 02:17 39.44977 -74.91691 31895 ft 378 kts 234°
2026-05-07 02:18 39.43108 -74.94140 31888 ft 385 kts 234°
2026-05-07 02:18 39.41219 -74.96610 31890 ft 392 kts 234°
2026-05-07 02:19 39.39285 -74.99135 31883 ft 397 kts 234°
2026-05-07 02:19 39.37333 -75.01680 31887 ft 400 kts 233°
2026-05-07 02:20 39.35368 -75.04238 31886 ft 402 kts 233°
2026-05-07 02:20 39.33390 -75.06816 31888 ft 404 kts 233°
2026-05-07 02:21 39.31405 -75.09400 31887 ft 405 kts 233°
2026-05-07 02:21 39.29426 -75.11974 31887 ft 406 kts 233°
2026-05-07 02:22 39.27429 -75.14565 31883 ft 407 kts 233°
2026-05-07 02:22 39.25432 -75.17151 31881 ft 407 kts 233°
2026-05-07 02:23 39.23431 -75.19737 31880 ft 407 kts 233°
2026-05-07 02:23 39.21432 -75.22321 31883 ft 406 kts 233°
2026-05-07 02:24 39.19437 -75.24898 31883 ft 406 kts 233°
2026-05-07 02:24 39.17446 -75.27468 31884 ft 405 kts 233°
2026-05-07 02:25 39.15455 -75.30038 31887 ft 404 kts 233°
2026-05-07 02:25 39.13480 -75.32585 31887 ft 404 kts 233°
2026-05-07 02:26 39.11492 -75.35146 31888 ft 404 kts 233°
2026-05-07 02:26 39.09505 -75.37705 31887 ft 404 kts 233°
2026-05-07 02:27 39.07515 -75.40266 31888 ft 405 kts 233°
2026-05-07 02:27 39.05531 -75.42816 31892 ft 405 kts 233°
2026-05-07 02:28 39.03530 -75.45387 31887 ft 407 kts 233°
2026-05-07 02:28 39.01525 -75.47960 31889 ft 408 kts 233°
2026-05-07 02:29 38.99511 -75.50542 31882 ft 409 kts 233°
2026-05-07 02:29 38.97493 -75.53128 31887 ft 410 kts 233°
2026-05-07 02:30 38.95469 -75.55719 31881 ft 411 kts 233°
2026-05-07 02:30 38.93456 -75.58292 31881 ft 411 kts 233°
2026-05-07 02:31 38.91463 -75.60922 31883 ft 408 kts 236°
2026-05-07 02:31 38.89673 -75.63728 31886 ft 404 kts 239°
2026-05-07 02:32 38.88282 -75.66158 31882 ft 402 kts 241°
2026-05-07 02:32 38.86769 -75.69148 31883 ft 396 kts 245°
2026-05-07 02:33 38.85399 -75.72201 31885 ft 394 kts 245°
2026-05-07 02:33 38.84043 -75.75240 31887 ft 392 kts 245°
2026-05-07 02:34 38.82694 -75.78256 31892 ft 390 kts 245°
2026-05-07 02:34 38.81340 -75.81272 31893 ft 390 kts 245°
2026-05-07 02:35 38.79985 -75.84283 31895 ft 389 kts 245°
2026-05-07 02:35 38.78631 -75.87286 31896 ft 389 kts 245°
2026-05-07 02:36 38.77279 -75.90276 31894 ft 390 kts 245°
2026-05-07 02:36 38.75888 -75.93261 31895 ft 392 kts 242°
2026-05-07 02:37 38.74218 -75.96069 31900 ft 398 kts 237°
2026-05-07 02:37 38.72371 -75.98735 31896 ft 401 kts 234°
2026-05-07 02:38 38.70437 -76.01300 31894 ft 405 kts 232°
2026-05-07 02:38 38.68651 -76.03309 31898 ft 411 kts 227°
2026-05-07 02:39 38.66387 -76.05528 31898 ft 413 kts 226°
2026-05-07 02:39 38.64085 -76.07741 31895 ft 414 kts 226°
2026-05-07 02:40 38.61778 -76.09950 31895 ft 415 kts 226°
2026-05-07 02:40 38.59472 -76.12165 31895 ft 415 kts 226°
2026-05-07 02:41 38.57168 -76.14387 31894 ft 415 kts 226°
2026-05-07 02:41 38.54869 -76.16610 31895 ft 415 kts 226°
2026-05-07 02:42 38.52586 -76.18838 31958 ft 411 kts 226°
2026-05-07 02:42 38.50310 -76.21063 31926 ft 414 kts 226°